Weather History for Cincinnati, OH

Change the Weather History Date:

Tuesday, May 14, 2013

  Actual Average Record
Temperature  
Mean Temperature 60 °F -  
Max Temperature 80 °F 74 °F 92 °F (1962)
Min Temperature 39 °F 52 °F 37 °F (1952)
Degree Days  
Heating Degree Days 6    
Growing Degree Days 10 (Base 50)    
Moisture  
Dew Point 48 °F    
Average Humidity 66    
Maximum Humidity 100    
Minimum Humidity 43    
Precipitation  
Precipitation 0.00 in - - ()
Sea Level Pressure  
Sea Level Pressure 30.00 in    
Wind  
Wind Speed 5 mph (SSW)    
Max Wind Speed 17 mph    
Max Gust Speed 30 mph    
Visibility 10 miles    
Events      
Averages and records for this station are not official NWS values.
T = Trace of Precipitation, MM = Missing Value Source: NWS Daily Summary

Daily Weather History Graph

Daily Weather History Graph

Search for Another Location

Airport:

Trip Planner

Search our weather history database for the weather conditions in past years. The results will help you decide how hot, cold, wet, or windy it might be!

Date:

Astronomy

May. 14, 2013 Rise Set
Actual Time 6:25 AM EDT 8:43 PM EDT
Civil Twilight 5:55 AM EDT 9:13 PM EDT
Nautical Twilight 5:18 AM EDT 9:50 PM EDT
Astronomical Twilight 4:37 AM EDT 10:31 PM EDT
Moon 10:04 AM EDT (5/14) No Moon Set
Length of Visible Light 15h 18m
Length of Day
14h 17m
Waxing Crescent, 19% of the Moon is Illuminated
May 14
Waxing Crescent
May 18
First Quarter
May 25
Full
May 31
Last Quarter
Jun 8
New

Hourly Weather History & Observations

Time (EDT) Temp. Windchill Dew Point Humidity Pressure Visibility Wind Dir Wind Speed Gust Speed Precip Events Conditions
12:53 AM 42.1 °F - 39.0 °F 89% 30.18 in 10.0 mi Calm Calm - N/A   Clear
1:53 AM 41.0 °F - 39.9 °F 96% 30.16 in 10.0 mi Calm Calm - N/A   Clear
2:53 AM 39.9 °F - 39.9 °F 100% 30.15 in 9.0 mi Calm Calm - N/A   Clear
3:53 AM 41.0 °F - 39.9 °F 96% 30.14 in 10.0 mi Calm Calm - N/A   Clear
4:53 AM 42.1 °F 40.2 °F 41.0 °F 96% 30.13 in 10.0 mi ENE 3.5 mph - N/A   Overcast
5:53 AM 45.0 °F 43.5 °F 42.1 °F 90% 30.12 in 10.0 mi SW 3.5 mph - N/A   Mostly Cloudy
6:53 AM 46.9 °F - 39.9 °F 77% 30.13 in 10.0 mi Calm Calm - N/A   Overcast
7:53 AM 48.0 °F - 41.0 °F 77% 30.14 in 10.0 mi SSW 4.6 mph - N/A   Overcast
8:53 AM 52.0 °F - 41.0 °F 66% 30.13 in 10.0 mi SSW 5.8 mph - N/A   Scattered Clouds
9:53 AM 55.9 °F - 41.0 °F 57% 30.12 in 10.0 mi South 5.8 mph - N/A   Overcast
10:53 AM 63.0 °F - 43.0 °F 48% 30.08 in 10.0 mi South 10.4 mph - N/A   Clear
11:53 AM 66.9 °F - 46.0 °F 47% 30.04 in 10.0 mi South 11.5 mph 19.6 mph N/A   Clear
12:53 PM 71.1 °F - 50.0 °F 47% 30.00 in 10.0 mi South 12.7 mph 21.9 mph N/A   Clear
1:53 PM 73.0 °F - 51.1 °F 46% 29.95 in 10.0 mi South 15.0 mph 25.3 mph N/A   Clear
2:53 PM 75.9 °F - 54.0 °F 46% 29.92 in 10.0 mi South 15.0 mph 25.3 mph N/A   Clear
3:53 PM 78.1 °F - 54.0 °F 43% 29.88 in 10.0 mi SSW 16.1 mph 25.3 mph N/A   Clear
4:53 PM 79.0 °F - 55.0 °F 44% 29.85 in 10.0 mi SSW 17.3 mph 29.9 mph N/A   Clear
5:53 PM 80.1 °F - 55.9 °F 43% 29.84 in 10.0 mi SW 11.5 mph 23.0 mph N/A   Clear
6:53 PM 79.0 °F - 55.9 °F 45% 29.83 in 10.0 mi SSW 15.0 mph 21.9 mph N/A   Clear
7:53 PM 78.1 °F - 57.0 °F 48% 29.85 in 10.0 mi SW 10.4 mph 24.2 mph N/A   Clear
8:53 PM 70.0 °F - 57.9 °F 65% 29.86 in 10.0 mi South 6.9 mph - N/A   Clear
9:53 PM 64.0 °F - 57.9 °F 80% 29.89 in 10.0 mi SSW 3.5 mph - N/A   Clear
10:53 PM 66.9 °F - 59.0 °F 76% 29.87 in 7.0 mi SSW 12.7 mph - N/A   Clear
11:53 PM 69.1 °F - 57.9 °F 68% 29.86 in 10.0 mi SW 9.2 mph - N/A   Clear